Location: Peterborough
(44.3091°N, 78.3197°W)
Time: 06:19:24
(UTC-04:00)

A-11 Canister half - Pass Details

Date: 28 March 2023
Orbit: 1513 x 1686 km, 47.2° (Epoch: 04 June)

Event Time Altitude Azimuth Distance (km) Brightness Sun altitude
Exits shadow 04:37:58 38° 259° (W) 2,389 9.5 -25.1°
Maximum altitude 04:40:55 46° 221° (SW) 2,149 9.3 -24.7°
Drops below altitude 10° 04:50:19 10° 152° (SSE) 3,914 11.1 -23.2°
Sets 04:53:36 0° 147° (SSE) 4,883 11.7 -22.7°
